STARLINK-5121, 53993

Orbit data source: Space-Track

STARLINK-5121, 53993 is a payload satellite owned by SpaceX/Seattle (US) in LEO that was launched on Wed, 05 Oct 2022 UTC via an FALCON 9 launch vehicle from the Air Force Western Test Range (AFWTR). Payload-class satellites include a variety of spacecraft equipped with specific instruments for various scientific and technological missions. These include communications satellites like Starlink; space stations such as the ISS; scientific satellites like the Hubble; Earth observation satellites from companies like Planet Labs, Umbra, and HawkEye 360; GPS; miniature CubeSats for education and research; and military/defense satellites.

Loading next visibility...
Identifier
53993, 2022-125AF
Orbit
LEO
Country
Flag of USUS
Related business
Manufacturer
SpaceX/Seattle
Mission
Operational Commercial Communications
Bus & Motor
STARLINK, Unknown motor
Mass
305 kg wet, ~290 kg dry
Launch date (UTC)
2022-10-05 (4 years ago)
Launch vehicle
FALCON 9
Launch site
Air Force Western Test Range (AFWTR)
Object type
Payload
Rocket body
Debris
Shape & HBR
Box + 1 Pan, 10.1 m
Radar Cross Section
13.562 m², Large (>1 m²)

Expand to show TLE details & history
Last TLE update: 3 days ago

TLE from 3 days ago
0 STARLINK-5121
1 53993U 22125AF  26170.55050180  .00001266  00000-0  97627-4 0  9991
2 53993  53.1612 111.4946 0001264  89.7139 270.3997 15.08827452204909
Epoch: 2026-06-19T13:12Z
TLE epoch observation values (Epoch: 2026-06-19T13:12:43.355Z)
Latitude
-0.00005°
Longitude
5.53606°
Altitude
540.667 km
Speed
7.593 km/s
True Right ascension
07h 25m 58s
True Declination
0° 00' 00"
Sunlit
Object was in daylight at epoch
Visualization orbit readout
Latitude
Unknown
Longitude
Unknown
Altitude
Unknown
Speed
Unknown
Apparent Right ascension
Unknown
Apparent Declination
Unknown
Sunlit
N/A
Visualization observer readout
Local Sidereal Time
21:24:18
Azimuth
Unknown
Elevation
Unknown
Doppler factor
Unknown
Orbital elements
Apogee altitude
540.91 km
Perigee altitude
539.161 km
Semi-major axis
6,918.173 km
Eccentricity
0.00013
Inclination
53.1612°
RAAN
111.4946°
Arg. of periapsis
89.7139°
True anomaly
270.38522°
Mean anomaly
270.3997°
Eccentric anomaly
270.39246°
Mean motion
3.77186 °/min
Orbital period
95.44 mins
BSTAR
0.000097627
Loading maneuver chart data...
Computing Atmospheric mass density...
Loading historical data...
Loading historical data...
Loading historical data...
Loading historical data...
Loading historical data...
Loading historical data...
Loading historical data...

Documentation

Showing up to 5 results
|